Location: Sternwarte_Laufen
(47.9344°N, 12.9346°E)
Time: 14:12:11
(UTC+02:00)

Tiangong 2 - Visible Passes

Search period start: 24 May 2018 00:00
Search period end: 03 June 2018 00:00
Orbit: 382 x 385 km, 42.8° (Epoch: 24 May)

Date Brightness Start Highest point End Pass type
(mag) Time Alt. Az. Time Alt. Az. Time Alt. Az.
24 May 2.4 21:35:36 10° SW 21:38:08 22° SSE 21:40:40 10° ESE visible
24 May 2.5 23:11:33 10° WSW 23:13:18 24° SW 23:13:18 24° SW visible
25 May 1.9 22:11:54 10° WSW 22:14:44 31° S 22:16:23 19° SE visible
25 May 3.8 23:48:23 10° WSW 23:48:35 11° WSW 23:48:35 11° WSW visible
26 May 2.0 22:48:35 10° WSW 22:51:23 29° S 22:51:30 29° S visible
27 May 2.0 21:48:51 10° WSW 21:51:42 31° S 21:54:20 11° ESE visible
27 May 3.3 23:25:35 10° WSW 23:26:32 15° SW 23:26:32 15° SW visible
28 May 2.4 22:25:39 10° WSW 22:28:19 25° SSW 22:29:18 21° SSE visible
29 May 3.3 23:02:59 10° WSW 23:04:14 14° SW 23:04:14 14° SW visible
30 May 2.8 22:02:48 10° WSW 22:05:11 20° SSW 22:06:58 13° SSE visible
01 Jun 3.3 21:40:09 10° WSW 21:42:00 15° SSW 21:43:50 10° SSE visible
